Tracking 27188 objects as of 2-Apr-2023
HD Live streaming from Space Station
objects crossing your sky now

STARLINK-4437

Track STARLINK-4437 now!
10-day predictions
STARLINK-4437 is classified as:


NORAD ID: 53506
Int'l Code: 2022-099AT
Perigee: 567.8 km
Apogee: 572.5 km
Inclination: 97.7 °
Period: 95.9 minutes
Semi major axis: 6941 km
RCS: Unknown
Launch date: August 12, 2022
Source: United States (US)
Launch site: AIR FORCE WESTERN TEST RANGE (AFWTR)
Your satellite tracking list
Your tracking list is empty




NASA's NSSDC Master Catalog

Two Line Element Set (TLE):
1 53506U 22099AT  23091.29887348  .00006127  00000-0  48112-3 0  9990
2 53506  97.6551 213.4743 0003392 260.3154  99.7687 15.01261657 34946
Source of the keplerian elements: AFSPC